Location: Fornova de Taro
(44.7000°N, 10.1000°E)
Time: 03:24:48
(UTC+00:00)

Cosmos 292 Rocket - Pass Details

Date: 28 September 2022
Orbit: 673 x 692 km, 74.0° (Epoch: 27 November)

Event Time Altitude Azimuth Distance (km) Brightness Sun altitude
Exits shadow 01:36:49 21° 27° (NNE) 1,544 6.1 -36.5°
Drops below altitude 10° 01:38:25 10° 25° (NNE) 2,155 7.0 -36.3°
Sets 01:40:44 0° 23° (NNE) 3,075 7.9 -35.9°
